Dewpoint
45 45 46 47 43 43 44 42 44 46 45 45 46 46 44 44 44 44 42 41 42 45 47 51 54 55 52 45 43 48 55 55 55 55 51 49 46 44 40 39 39 37 37 37 37 37 36
46 45 47 43 43 42 45 45 44 43 43 44 45 44 45 44 44 44 42 41 43 47 47 51 52 56 47 38 45 49 55 55 53 54 52 51 48 45 39 38 38 36 37 36 37 36 37
46 45 45 44 42 46 46 45 44 44 43 43 44 44 44 44 44 44 43 43 44 46 46 47 50 53 45 38 43 48 54 54 55 54 51 53 52 43 41 38 38 37 35 36 36 36 36
45 44 44 43 45 45 45 43 42 42 42 43 43 43 43 43 43 42 44 45 44 45 46 46 47 51 41 43 44 43 44 46 51 54 52 52 52 45 43 41 38 36 36 32 34 34 35
43 44 42 41 45 44 43 42 41 41 41 42 42 42 43 43 43 43 44 45 45 45 44 45 46 48 38 46 42 41 41 42 43 51 53 52 49 44 41 37 34 35 31 32 33 35 34
44 42 43 44 44 44 42 42 41 41 42 42 42 42 42 42 42 44 44 45 43 43 44 45 45 41 42 40 42 41 41 40 47 50 50 48 47 43 40 36 30 30 31 32 31 32 31
44 43 42 44 44 44 42 42 41 41 41 41 40 40 41 41 44 45 45 42 34 38 42 35 40 40 40 41 43 41 40 39 50 47 43 44 41 38 39 38 35 33 33 32 32 30 27
44 42 40 44 44 43 42 42 41 41 41 41 39 39 41 42 44 44 44 38 37 39 34 36 39 41 41 40 39 41 40 42 43 41 43 40 37 40 41 41 39 37 32 31 29 29 28
41 39 40 44 43 43 42 41 40 41 42 38 39 41 42 43 43 44 41 39 43 41 33 35 38 41 38 38 38 39 40 41 41 39 39 36 36 40 40 38 36 31 29 28 28 28 27
40 39 40 43 42 42 40 39 39 42 39 39 40 41 42 43 41 42 39 44 43 40 29 33 38 43 39 39 36 41 42 40 39 38 36 35 31 38 38 36 31 28 29 29 28 26 23
40 40 42 42 41 41 40 38 39 39 40 42 42 43 45 45 42 40 42 45 41 39 18 35 40 42 41 38 38 40 42 38 36 36 34 32 32 30 31 32 31 29 29 28 27 26 25
40 41 41 39 41 41 39 37 40 40 43 46 47 46 46 45 43 44 44 42 38 24 19 31 38 38 37 37 38 41 39 36 38 35 32 31 33 31 30 31 30 30 27 27 28 26 19
41 40 40 41 40 42 37 39 39 42 45 47 47 45 45 45 41 46 44 36 17 17 28 30 35 36 35 35 37 38 35 33 34 32 31 31 30 31 31 30 31 27 24 17 17 20 13
40 40 41 37 40 41 38 39 40 42 46 47 45 46 47 46 46 44 41 32 16 24 26 35 35 35 34 33 36 37 33 32 33 30 28 27 26 29 31 30 28 28 25 16 8 14 18
39 38 40 39 38 41 39 40 40 44 47 47 43 42 44 47 45 42 35 23 23 28 32 35 32 32 31 33 35 34 32 30 31 30 26 24 25 31 30 31 29 29 26 27 24 22 19
41 39 38 40 39 41 39 40 40 44 47 46 39 40 42 46 44 40 33 29 30 34 36 32 29 30 29 31 32 31 30 30 29 31 31 28 26 30 31 30 31 28 29 24 23 8 7
41 38 38 39 39 38 38 40 39 43 47 46 38 34 39 45 44 37 29 30 35 37 34 30 31 28 29 28 29 27 27 30 29 29 30 29 26 28 29 27 27 28 26 26 24 21 15
40 38 38 37 36 38 38 40 39 43 46 43 37 28 40 44 33 32 32 34 38 37 37 32 29 29 27 30 27 27 26 28 31 30 28 28 27 25 28 29 29 28 27 25 21 15 24
41 38 38 37 39 38 40 40 40 42 45 42 35 35 42 42 32 33 36 37 38 35 32 30 28 28 29 28 26 26 28 29 31 30 29 28 24 21 23 25 29 28 28 27 26 25 21
41 38 38 37 36 36 38 39 39 41 45 41 37 29 34 39 38 35 34 34 32 33 32 29 29 28 27 26 26 28 28 30 32 31 33 30 26 21 18 23 26 25 27 28 26 24 23
41 39 37 37 37 36 36 37 38 41 44 39 36 34 36 31 33 35 35 34 32 32 33 31 27 27 29 28 28 29 30 29 31 33 32 28 25 27 26 27 28 27 26 27 27 26 24
41 40 38 37 37 36 36 36 37 40 42 39 35 35 37 35 35 33 33 32 32 34 33 32 31 30 30 31 31 29 29 29 28 30 30 30 27 29 26 27 29 27 27 27 27 28 28
40 41 37 37 37 36 36 36 36 38 40 39 40 40 38 33 32 32 31 31 32 33 34 36 34 34 34 37 37 35 32 30 30 29 30 29 28 26 22 25 28 26 28 29 30 30 30
39 41 37 38 37 36 36 35 35 36 37 40 40 40 36 30 31 31 30 34 33 34 33 37 37 33 39 40 39 36 36 33 32 31 32 31 29 28 23 27 23 31 32 33 32 33 35
38 39 38 37 38 37 36 35 35 35 36 36 42 38 37 31 35 33 34 34 34 35 36 36 38 40 40 39 35 31 32 33 34 34 32 34 31 28 25 25 28 32 31 34 32 32 35
37 40 42 36 38 38 37 36 34 34 34 36 41 41 38 33 33 37 37 33 32 32 33 36 42 41 39 37 33 28 27 28 31 34 36 34 35 31 29 25 22 29 32 35 37 31 36
38 39 42 36 38 37 37 36 34 34 34 35 36 39 38 34 37 38 36 33 33 34 33 38 39 39 39 34 31 28 26 31 29 29 31 32 32 29 28 27 28 30 31 38 30 28 35
39 38 41 37 35 37 37 35 36 35 34 34 33 39 36 34 34 37 39 41 38 36 33 38 35 37 35 33 31 30 28 28 30 33 32 29 30 30 31 28 24 31 37 34 34 36 36
38 38 39 40 37 36 37 36 37 36 33 35 32 35 39 35 33 38 38 39 40 42 40 39 37 37 38 34 34 34 31 32 31 27 32 29 30 29 31 29 31 33 35 36 35 35 34
Wind_Speed
21 24 23 23 25 27 25 26 28 25 27 27 25 21 22 22 21 21 19 20 20 20 21 19 20 13 8 5 11 9 7 24 20 15 16 12 10 8 10 11 10 9 8 9 11 15 6
21 22 24 26 26 26 26 26 27 27 27 26 25 24 19 23 20 20 21 19 20 18 18 15 17 13 6 12 8 11 3 23 17 14 13 12 10 12 5 5 16 2 14 14 9 8 5
20 22 24 25 26 27 27 28 27 27 27 26 24 21 20 21 20 18 20 19 17 16 16 16 19 12 11 20 6 12 10 13 14 16 13 11 11 6 7 3 10 5 8 4 9 7 5
22 23 23 25 27 28 27 26 25 25 26 25 23 21 19 18 17 19 17 15 16 17 15 20 19 10 7 11 18 3 8 8 11 12 15 10 7 3 3 1 3 7 2 10 5 10 9
22 22 24 26 28 26 25 26 27 27 26 25 23 21 19 17 18 17 15 20 20 20 19 16 7 6 4 5 14 14 4 9 8 7 8 9 6 3 4 7 4 2 5 7 11 11 12
21 23 26 25 26 26 27 27 26 26 26 23 21 20 20 20 18 13 16 17 24 17 9 4 6 6 6 9 11 11 7 7 5 14 9 5 3 7 7 12 14 9 11 6 10 3 3
21 24 24 26 27 27 26 26 27 25 24 24 23 22 21 19 14 15 15 7 5 1 6 7 5 5 11 10 14 15 8 7 9 6 8 6 6 12 19 16 4 5 3 4 8 6 9
22 25 26 26 27 26 27 26 26 25 24 25 23 22 21 19 18 21 7 3 5 3 3 13 6 20 6 10 13 18 12 9 8 6 11 6 8 10 7 5 12 5 5 10 11 3 8
23 26 25 28 27 26 26 26 28 27 25 25 22 21 20 20 24 6 3 9 8 5 2 3 13 11 13 12 8 18 17 8 10 10 7 10 5 11 11 12 11 6 4 4 7 10 1
24 25 25 27 27 25 27 28 29 26 27 24 23 22 22 23 13 6 13 4 11 3 3 5 14 8 7 12 7 6 9 6 4 13 15 7 3 15 10 5 4 5 4 5 3 5 8
23 25 26 25 27 25 27 28 30 29 28 27 26 25 25 18 9 5 4 15 8 2 7 9 9 12 5 1 21 8 2 4 9 10 5 5 10 15 12 6 7 4 7 6 3 4 7
23 25 25 26 27 27 28 29 30 31 31 33 32 27 23 7 3 2 8 7 2 4 2 2 7 13 10 14 4 10 1 4 9 10 9 5 5 3 5 8 8 11 6 7 5 4 7
22 24 25 26 26 28 30 30 32 34 35 32 23 13 5 2 2 13 5 2 3 3 2 6 14 19 22 9 10 5 8 13 6 9 7 2 3 3 8 11 4 9 6 2 2 2 12
22 24 25 26 27 28 30 31 32 35 35 27 16 13 12 10 13 12 1 1 5 4 5 4 18 21 10 13 9 12 10 7 3 5 9 7 4 8 4 5 7 6 7 5 5 4 6
21 23 24 25 27 28 30 32 32 34 32 22 12 13 11 8 7 3 4 4 3 4 3 13 23 17 10 7 7 6 3 9 4 2 6 7 2 2 7 6 8 4 5 3 1 1 4
21 23 25 26 27 28 30 31 33 34 29 13 4 3 9 6 5 6 4 4 3 5 19 10 6 3 8 8 9 4 8 5 4 6 2 5 6 3 2 5 3 4 9 3 1 3 6
20 22 24 25 26 29 30 31 32 34 31 12 4 4 3 10 3 2 2 5 4 8 4 6 4 7 10 8 12 6 13 3 12 6 3 2 5 0 5 5 10 6 5 3 4 4 3
18 20 23 24 25 26 29 31 33 34 29 8 3 5 1 6 4 3 5 2 2 7 8 2 9 14 7 6 9 5 15 5 12 7 6 1 5 5 9 1 6 5 7 8 4 3 5
16 19 20 22 25 27 28 30 32 34 27 6 2 3 3 2 7 8 4 1 5 3 3 3 4 4 14 10 8 6 6 3 15 13 14 5 3 4 3 3 2 6 8 9 3 2 12
17 16 18 21 24 26 28 30 33 33 28 3 3 3 6 4 1 4 7 10 6 9 13 7 6 15 9 6 3 6 4 5 6 9 10 6 4 4 6 1 3 5 9 18 18 8 7
17 15 17 19 22 25 26 29 32 34 27 3 6 3 3 5 7 6 5 6 10 8 9 6 10 13 9 4 8 6 5 5 7 6 4 5 3 3 6 11 7 11 12 14 24 28 14
13 15 15 17 19 22 24 27 28 32 22 7 3 3 5 4 6 2 6 7 9 6 7 7 6 4 2 5 3 8 8 5 5 2 4 2 2 2 7 6 11 17 18 20 22 21 24
11 15 13 15 16 19 21 23 25 27 17 6 5 3 2 6 4 2 3 0 3 3 7 8 5 8 13 5 7 4 4 12 10 11 6 7 5 1 5 3 7 9 15 17 9 13 13
9 14 11 13 13 15 17 20 21 21 19 2 3 3 3 3 3 1 0 4 5 2 4 5 9 4 1 1 4 8 11 9 9 6 9 8 6 4 5 5 4 3 3 6 13 15 18
8 13 10 11 12 12 13 15 18 18 17 6 4 4 4 5 5 2 3 7 7 6 5 5 5 2 1 3 4 3 1 2 5 4 9 6 6 2 3 4 8 6 7 4 5 17 12
7 11 10 10 10 10 11 13 14 15 17 8 1 3 2 4 6 4 3 6 6 4 3 3 2 2 3 2 2 4 5 4 5 4 5 5 3 5 3 3 3 6 0 1 4 7 6
8 10 12 11 10 9 10 10 12 12 13 7 3 5 3 4 5 1 4 3 2 5 5 3 2 2 2 3 3 4 3 3 7 8 6 8 6 12 9 5 9 11 6 5 2 4 3
8 11 14 10 12 10 11 10 12 9 10 5 7 3 4 5 12 5 4 3 4 4 6 6 4 1 1 4 4 3 3 3 3 6 7 11 8 6 6 6 8 3 5 3 4 5 6
8 12 14 10 12 11 12 11 12 10 8 3 2 5 3 5 8 7 16 21 10 3 4 5 3 4 4 2 3 1 2 1 2 3 4 6 9 6 12 9 6 3 6 4 3 8 6
Wind_Direction
344 338 336 342 340 335 332 329 329 330 329 323 320 313 308 312 307 306 303 299 294 298 293 284 294 178 136 206 244 275 256 184 189 163 181 184 168 178 184 201 233 239 250 241 246 269 259
345 337 342 347 341 331 335 334 332 335 330 325 322 317 315 301 306 307 304 305 292 293 293 311 303 210 155 224 248 261 233 170 183 166 183 177 188 201 213 200 202 219 225 250 265 250 248
337 348 346 340 332 333 332 334 332 330 328 325 323 321 312 305 310 307 306 301 295 289 295 300 291 273 189 214 292 204 154 167 166 177 179 192 212 196 194 230 216 238 193 258 232 239 251
347 347 340 334 339 337 339 334 331 333 330 327 324 319 315 310 309 311 313 308 292 290 288 295 299 277 206 217 253 229 173 153 180 192 204 193 196 184 185 202 132 158 120 234 253 256 251
343 342 340 335 339 341 336 334 335 334 334 331 330 324 324 318 313 317 321 305 305 289 285 284 301 204 208 166 212 235 189 171 165 158 176 106 112 160 141 162 145 171 222 230 278 240 236
345 341 337 338 339 338 335 335 338 335 334 333 330 324 322 316 315 318 315 312 299 288 272 198 258 136 258 197 176 187 200 185 159 125 105 111 113 157 163 177 202 208 211 220 239 281 333
341 339 338 343 341 338 336 339 335 334 336 331 329 327 322 324 323 311 318 342 335 189 213 183 184 231 167 158 135 179 171 156 135 155 165 145 168 177 185 195 129 192 194 231 270 285 334
346 342 342 345 344 341 339 340 333 339 335 331 329 326 322 320 316 311 296 277 239 153 274 219 270 269 196 148 154 179 162 161 170 152 120 151 197 165 183 196 235 270 282 283 297 262 326
347 344 343 346 346 345 343 342 338 338 334 336 333 329 323 321 323 333 180 258 204 148 57 229 225 243 152 138 128 165 170 149 146 132 139 146 177 156 175 201 204 202 191 252 282 323 77
347 344 343 350 348 347 345 345 341 339 341 336 327 322 319 319 314 343 299 191 177 158 74 202 192 193 160 127 99 125 175 124 147 156 141 145 216 160 147 184 161 180 97 106 32 355 282
347 343 345 350 347 346 346 345 342 342 336 329 317 311 309 310 293 270 278 174 121 96 139 168 157 143 102 121 136 185 353 82 143 139 136 150 149 144 156 187 164 160 111 84 40 350 329
347 347 349 353 349 348 351 344 343 340 336 324 313 308 307 313 180 229 151 130 136 37 185 223 117 142 112 123 104 135 84 65 113 98 65 101 132 117 137 94 125 144 85 48 52 43 275
346 348 351 351 351 352 352 346 349 343 341 342 350 350 39 158 17 139 126 44 118 252 255 129 136 136 124 120 127 118 141 141 141 138 126 98 56 78 115 98 79 107 89 314 314 246 237
345 347 350 358 353 355 352 351 353 346 348 354 1 26 25 68 103 122 53 338 68 269 271 223 126 120 110 124 127 131 140 135 77 89 120 144 199 185 175 163 174 170 150 178 253 245 292
347 352 356 356 356 357 353 354 355 348 352 348 359 31 36 66 107 33 304 23 355 310 313 125 112 107 101 89 121 124 147 157 149 151 140 148 135 170 169 138 144 168 180 151 230 288 289
349 353 357 0 360 360 356 353 357 350 347 348 12 36 31 0 315 351 354 12 309 236 120 97 84 107 122 120 122 114 154 192 184 186 137 167 117 30 116 126 114 144 147 139 105 262 267
350 356 360 359 2 360 357 353 358 353 347 350 34 68 328 356 360 9 335 358 6 105 39 38 115 106 117 125 133 136 179 246 197 190 195 131 104 38 138 207 181 155 176 183 145 181 265
351 357 2 359 0 1 359 357 357 356 349 27 14 61 50 4 39 15 10 22 144 233 277 291 89 117 124 97 140 144 194 241 185 173 169 62 105 158 203 238 201 184 185 174 177 208 236
352 358 3 0 1 4 3 360 358 359 359 325 48 305 76 3 53 34 347 125 217 232 15 89 113 122 135 133 154 123 144 302 187 169 163 154 119 121 125 29 87 206 199 192 182 193 241
345 360 360 3 2 3 1 360 357 360 360 36 11 19 336 26 338 2 12 10 37 31 45 69 109 133 122 141 108 133 127 33 143 165 156 126 151 199 200 161 141 199 205 208 208 223 236
337 353 359 3 5 4 3 1 358 358 0 83 25 37 12 357 8 21 40 4 40 36 26 57 118 135 153 140 123 130 117 97 65 120 117 140 216 212 268 261 248 249 238 211 219 230 248
347 343 356 1 6 5 6 3 4 0 2 61 40 14 331 276 302 319 20 21 39 21 32 64 113 222 177 89 256 160 138 143 166 130 130 83 216 24 296 281 232 247 249 240 241 248 256
352 335 352 355 5 7 4 6 5 9 17 40 348 330 319 307 351 356 343 13 34 25 44 49 149 102 80 58 43 64 145 167 167 159 140 153 167 82 273 291 319 270 242 221 211 218 219
347 332 350 349 357 6 5 2 5 11 17 345 18 304 323 274 289 246 10 106 70 47 135 23 40 79 47 352 89 62 64 99 145 163 154 165 163 160 276 336 232 284 274 206 223 248 223
344 327 341 345 347 355 3 359 357 5 11 10 348 7 325 284 296 296 74 124 94 77 76 77 47 104 345 66 99 100 57 141 210 188 186 159 172 211 263 264 297 291 246 205 250 293 234
343 325 333 334 339 346 352 351 349 360 356 13 171 331 306 283 230 300 291 183 161 159 119 130 103 24 75 103 143 187 190 192 173 163 191 159 176 184 232 284 260 244 144 22 125 290 211
331 319 327 326 330 336 338 346 336 350 357 359 294 15 272 266 275 264 246 242 228 156 158 152 156 87 52 146 180 190 216 164 170 179 174 188 210 219 229 260 280 259 277 138 328 316 249
327 310 319 317 322 326 325 333 328 331 344 6 308 333 21 298 280 267 281 284 315 167 158 154 112 149 128 182 193 213 211 212 199 176 176 186 192 194 186 218 257 208 135 221 264 303 299
322 303 310 304 314 318 316 316 316 319 320 339 282 301 302 227 276 310 280 275 261 290 134 157 142 148 181 180 214 218 231 239 190 232 183 212 205 191 194 217 253 271 272 284 320 303 310